Notices

What's New in latest Release from April 7th, 2021:

- Updated Glossary, including Speed of Maximum Gust, and Total Hourly Precipitation

- Updated national and regional climate services offices contacts and prices information

- Addition of station inventory lists for 1981-2010, 1971-2000, and 1961-1990 Normals.

Please note that as of June 10, 2021 UTC dates are available for all years 2004-present, and DBA is working on populating the remaining years (2003 to 1953).

If you haven't already, please take our survey and provide feedback about our website: https://eccc.sondage-survey.ca/f/LanguageSelection.aspx?s=442ca660-fcf1-47c0-95a9-59707d6fd709

Hourly Data Report for April 21, 2020

CLYDE RIVER A
NUNAVUT
Current Station Operator: NAVCAN

70°29'09.000" N
68°31'01.000" W
26.50 m
2400804
71090
YCY

Download Data

Hourly Data (April 2020)
Hourly Data Report for April 21, 2020
TIME
LST
Temp Definition
°C
Dew Point Definition
°C
Rel Hum Definition
%
Precip. Amount Definition
mm

Wind Dir Definition
10's deg

Wind Spd Definition
km/h
Visibility Definition
km
Stn Press Definition
kPa
Hmdx Definition


Wind Chill Definition


Weather Definition


00:00 -16.5 -18.6 84 0.0 30 24 16.1 101.02   -27 Snow
01:00 -16.4 -18.5 84 0.0 30 24 12.9 101.02   -27 Snow
02:00 -15.8 -17.9 84 0.0 30 24 16.1 101.04   -26 Snow
03:00 -15.8 -17.8 85 0.0 31 21 9.7 101.08   -25 Snow
04:00 -18.2 -20.1 85 0.0 30 15 16.1 101.13   -27 LegendNANA
05:00 -17.4 -19.7 83 0.0 30 18 16.1 101.16   -27 LegendNANA
06:00 -16.6 -19.1 81 0.0 31 15 16.1 101.20   -25 LegendNANA
07:00 -15.8 -18.2 82 0.0 32 15 16.1 101.24   -24 LegendNANA
08:00 -15.2 -17.9 80 0.0 25 5 16.1 101.30   -19 LegendNANA
09:00 -14.7 -17.6 79 0.0 31 8 16.1 101.32   -20 LegendNANA
10:00 -14.5 -17.2 80 0.0 34 18 16.1 101.31   -23 LegendNANA
11:00 -14.5 -17.1 81 0.0 33 17 16.1 101.32   -23 LegendNANA
12:00 -14.3 -17.0 80 0.0 34 15 16.1 101.32   -22 LegendNANA
13:00 -14.3 -16.9 81 0.0 34 15 16.1 101.33   -22 LegendNANA
14:00 -14.3 -16.9 81 0.0 34 15 16.1 101.37   -22 LegendNANA
15:00 -14.4 -16.8 82 0.0 33 15 16.1 101.39   -22 LegendNANA
16:00 -14.4 -16.8 82 0.0 31 15 16.1 101.38   -22 Snow
17:00 -15.4 -17.7 83 0.0 30 18 16.1 101.37   -24 LegendNANA
18:00 -16.9 -19.2 82 0.0 31 15 16.1 101.38   -25 LegendNANA
19:00 -17.3 -19.7 82 0.0 29 22 16.1 101.38   -28 LegendNANA
20:00 -18.5 -20.6 84 0.0 31 21 16.1 101.41   -29 LegendNANA
21:00 -18.5 -20.4 85 0.0 30 18 16.1 101.41   -28 Snow
22:00 -17.7 -19.8 84 0.0 26 9 16.1 101.41   -24 Snow
23:00 -19.2 -21.3 84 0.0 25 9 16.1 101.39   -26 Snow

Notes on Data Quality.

Legend

  • E = Estimated
  • M = Missing
  • NA = Not Available*
  • [empty] = Indicates an unobserved value
Date modified: